Temperature
23 23 23 24 27 29 30 32 33 33 33 32 31 31 30 29 28 26 24 24 23 23 23 22 22 21 21 20 20 20 20 20 20 19 19 19 19 19 19 19 19 19 19 19 19 19 19 19 19
23 23 24 27 28 29 31 33 33 33 32 32 31 31 30 28 27 26 24 23 23 23 22 22 22 21 21 20 20 20 20 19 19 19 19 19 19 19 19 19 19 19 19 19 18 18 18 18 18
23 24 26 29 29 30 31 32 33 32 32 31 31 30 29 27 26 25 24 23 23 22 22 22 22 21 21 20 20 20 20 19 19 19 19 19 19 19 19 19 18 18 18 18 18 18 18 18 18
23 25 27 29 30 31 32 32 32 32 32 31 31 29 27 26 25 24 23 23 23 22 22 22 21 21 21 20 20 20 19 19 19 19 19 19 19 19 18 18 18 18 18 18 18 18 18 18 18
24 27 29 30 31 32 33 33 32 32 32 31 30 28 25 24 24 24 24 23 23 22 22 22 21 21 21 20 20 20 19 19 19 19 19 19 19 19 18 18 18 18 18 18 18 18 18 18 18
27 29 29 30 32 32 33 32 32 32 31 31 30 28 25 24 24 24 24 23 22 22 21 22 21 21 20 20 20 19 19 19 19 19 19 19 19 18 18 18 18 18 18 18 18 18 18 18 18
28 29 30 31 31 32 32 32 32 31 31 30 29 28 25 24 24 24 23 23 22 21 21 21 21 21 20 20 20 19 19 19 19 19 19 19 18 18 18 18 18 18 18 18 18 18 18 18 18
28 30 30 31 31 31 32 32 31 30 29 29 29 28 25 23 23 23 23 23 22 21 21 21 20 20 20 20 19 19 19 19 19 19 19 18 18 18 18 18 18 18 18 18 18 18 18 18 18
29 29 29 30 31 31 32 32 31 30 29 28 28 27 25 24 23 23 23 22 22 21 20 20 20 20 19 19 19 19 19 19 19 18 18 18 18 18 18 18 18 18 17 17 17 17 17 17 17
30 29 30 31 32 31 31 31 30 30 29 28 27 25 24 23 23 23 23 22 22 21 20 20 20 19 19 19 18 19 18 18 18 18 18 18 18 17 17 17 17 17 17 17 17 17 17 17 17
30 30 31 31 31 31 30 30 30 30 29 28 27 25 24 23 23 23 22 22 22 21 20 20 20 19 19 19 18 18 18 18 18 18 17 17 17 17 17 17 17 17 17 17 17 17 17 16 17
31 31 31 31 31 30 30 30 29 29 28 27 26 25 24 24 23 23 22 22 21 21 20 20 20 19 19 19 18 18 18 18 18 17 17 17 17 17 17 17 17 16 16 16 16 16 16 16 16
31 31 31 31 30 30 30 29 29 28 27 27 26 25 24 24 23 22 22 22 21 21 20 20 20 19 19 19 18 18 18 18 18 17 17 17 17 17 17 16 16 16 16 16 16 16 16 16 16
31 31 31 31 31 30 30 29 29 28 27 26 26 25 24 24 23 22 22 21 21 20 20 19 19 19 19 18 18 18 18 18 17 17 17 17 17 17 17 16 16 16 16 16 16 16 16 16 16
31 31 31 31 31 31 30 29 29 28 27 27 25 25 24 23 23 22 22 21 20 20 19 19 19 18 18 18 18 18 17 17 17 17 17 17 16 16 16 16 16 16 16 16 16 16 16 15 15
31 30 29 31 31 31 30 28 28 27 27 27 26 25 24 23 22 22 21 21 20 19 19 18 18 18 18 18 18 17 17 17 17 17 17 16 16 16 16 16 16 16 15 15 15 15 15 15 15
30 29 29 30 31 31 30 27 28 27 27 26 25 25 24 23 22 21 21 20 19 19 19 18 18 18 18 18 17 17 17 17 17 16 16 16 16 16 15 15 15 15 15 15 15 15 15 15 15
28 29 29 29 30 30 29 28 28 27 27 26 25 24 23 23 22 21 21 20 19 19 18 18 18 17 17 17 17 17 16 16 16 16 16 16 15 15 15 15 15 15 15 15 15 15 14 14 14
29 29 29 29 30 29 28 27 28 27 27 26 25 24 23 23 22 21 20 20 19 19 18 17 17 17 17 17 16 16 16 16 16 16 15 15 15 15 15 15 15 14 14 14 14 14 14 14 14
29 29 29 30 30 29 28 28 28 27 27 26 25 24 23 23 22 21 20 19 19 18 17 17 17 17 16 16 16 16 16 16 15 15 15 15 15 15 14 14 14 14 14 14 14 14 14 14 14
29 28 28 28 29 29 28 27 27 27 27 26 25 24 23 22 21 20 20 19 18 18 17 17 16 16 16 16 16 15 15 15 15 15 15 14 14 14 14 14 14 14 14 13 13 13 13 13 13
28 29 29 28 27 27 27 26 26 26 26 26 25 24 23 22 21 20 19 19 18 17 17 17 16 16 16 15 15 15 15 15 15 14 14 14 14 14 14 14 14 13 13 13 13 13 13 13 13
28 29 28 28 27 27 27 25 25 26 25 25 24 23 23 22 21 20 19 19 18 17 17 16 16 15 15 15 15 15 14 14 14 14 14 14 14 14 14 13 13 13 13 13 13 13 13 13 13
28 28 27 27 26 25 25 25 24 25 25 25 24 23 22 21 21 20 19 18 18 17 17 16 16 15 15 15 15 14 14 14 14 14 14 14 14 13 13 13 13 13 13 12 12 12 12 12 12
27 25 24 24 24 24 25 24 23 24 25 25 24 23 22 21 21 20 19 18 17 17 17 16 16 15 15 15 14 14 14 14 14 14 13 13 13 13 13 13 13 12 12 12 12 12 12 12 12
26 25 23 22 22 23 24 23 23 25 25 25 24 23 22 21 21 20 19 18 17 17 16 16 16 15 15 15 14 14 14 14 13 13 13 13 13 13 13 12 12 12 12 12 12 12 12 12 12
26 25 26 24 23 23 23 23 23 24 24 24 23 22 22 21 20 20 19 18 17 17 16 15 15 15 14 14 14 14 14 13 13 13 13 13 12 12 12 12 12 12 12 12 12 12 12 12 12
27 26 25 24 23 22 22 23 22 22 23 23 23 22 21 20 20 19 18 17 17 16 16 15 15 14 14 14 14 13 13 13 13 13 12 12 12 12 12 12 12 12 11 11 11 11 11 11 11
26 25 25 25 24 22 21 21 22 22 22 22 22 21 20 19 19 18 18 17 17 16 16 15 14 14 14 14 13 13 13 13 13 12 12 12 12 12 12 11 11 11 11 11 11 11 11 11 11
26 26 24 23 22 22 22 21 23 23 22 22 22 21 20 19 18 18 18 17 16 16 15 15 14 14 14 13 13 13 13 12 12 12 12 12 12 12 11 11 11 11 11 11 11 11 11 11 11
Wind_Speed
9 12 10 7 7 8 9 5 2 6 8 9 8 7 11 13 10 9 9 13 20 21 19 18 16 14 13 11 10 10 10 11 10 9 9 8 7 7 6 6 5 4 4 3 3 2 2 1 2
10 12 9 7 8 9 6 1 4 7 8 8 6 7 10 13 12 10 11 15 19 20 18 17 16 14 13 12 11 10 10 10 10 9 8 8 7 7 6 5 4 4 3 3 2 1 0 0 0
12 15 7 7 10 9 4 5 6 6 7 6 5 7 8 9 9 8 13 16 17 18 18 19 17 15 13 12 11 10 10 10 9 9 8 7 7 6 6 5 5 4 3 3 2 2 2 2 2
7 8 7 9 12 7 2 3 3 5 5 4 4 7 8 8 7 11 14 15 16 17 19 19 18 15 13 12 10 10 10 9 9 8 8 7 7 6 6 6 5 5 4 4 3 3 3 3 4
10 8 11 13 12 5 1 3 3 4 5 4 5 8 8 8 11 14 13 14 15 17 17 18 17 15 13 12 10 9 9 8 8 8 7 7 7 7 6 6 6 5 5 5 5 4 4 4 5
8 8 11 11 9 3 0 2 0 2 3 3 3 7 7 9 11 11 12 12 15 16 17 17 17 15 14 12 11 10 9 8 8 8 7 7 7 7 7 7 7 6 6 6 6 6 6 6 7
11 11 12 12 8 3 1 2 2 2 3 4 2 4 8 10 10 10 11 11 14 15 15 14 15 14 13 12 11 10 9 8 8 8 7 7 7 8 8 8 7 7 7 7 7 7 8 8 9
12 11 15 12 7 2 1 2 3 3 2 2 3 3 8 11 10 10 10 11 12 13 13 12 13 13 13 12 13 12 11 10 9 8 8 8 9 9 10 10 10 9 9 9 9 9 10 10 11
14 12 11 8 6 1 2 2 3 2 2 2 5 7 13 14 12 10 10 9 10 11 10 10 11 10 10 11 13 13 12 11 10 9 10 9 9 10 11 12 12 12 11 11 11 11 12 12 13
10 10 9 7 6 4 4 2 1 1 2 3 6 11 14 13 11 11 10 9 10 10 9 8 9 9 8 8 10 10 9 9 9 8 9 9 9 8 8 8 12 12 12 13 13 13 12 12 11
10 10 8 7 5 4 4 3 2 1 1 2 5 10 11 11 10 10 9 8 8 8 7 7 7 6 5 4 6 5 5 6 7 8 8 8 7 6 4 3 6 8 10 9 9 9 9 8 7
9 7 7 7 4 4 4 3 4 2 2 4 6 8 9 10 9 9 9 7 7 7 7 5 5 5 4 3 3 3 2 3 3 4 6 5 2 2 1 2 3 4 4 4 3 3 5 6 7
10 7 7 5 3 3 3 2 3 1 3 5 6 6 7 6 7 7 6 7 7 6 6 5 4 5 3 3 1 3 2 3 3 4 4 3 2 2 2 1 1 2 2 2 2 3 3 4 5
7 7 7 6 5 4 4 3 4 2 3 5 5 5 6 6 7 7 5 5 5 5 5 4 4 5 4 3 2 1 1 2 2 3 3 4 2 1 1 2 1 2 2 2 2 3 4 4 3
8 9 10 9 7 5 5 5 3 3 3 5 5 6 5 5 5 6 5 5 5 5 4 4 4 4 3 3 2 2 2 2 1 1 2 3 2 1 1 2 3 2 2 2 3 3 3 4 4
13 12 11 9 8 8 7 5 1 2 3 4 4 4 5 5 4 4 5 6 5 5 4 3 3 4 4 2 2 2 1 1 1 1 1 1 1 1 2 2 2 1 2 2 2 2 3 4 3
11 10 9 8 6 6 6 5 4 4 4 3 3 3 3 5 4 4 5 6 6 5 5 4 2 2 3 3 2 2 1 1 1 1 1 1 0 1 1 2 1 2 2 1 3 2 3 4 4
10 9 8 8 5 6 5 6 5 3 4 3 3 4 3 3 3 4 5 5 6 5 5 4 3 1 2 2 2 1 2 1 1 1 1 1 1 1 1 2 1 2 2 2 2 3 4 4 4
12 12 10 9 5 7 6 7 5 4 3 3 3 4 3 3 3 5 6 6 6 6 5 3 2 2 1 1 1 1 1 1 1 1 2 0 1 1 2 2 1 2 2 2 2 3 4 4 2
12 11 10 8 6 7 8 9 7 6 5 5 4 3 3 3 4 5 6 5 6 6 5 4 3 2 2 1 1 1 1 1 1 1 1 1 1 1 1 1 1 2 2 2 2 3 3 3 2
9 9 10 9 10 10 11 9 5 5 4 5 4 3 3 3 5 6 6 5 4 5 5 4 3 2 1 0 1 0 0 0 1 1 1 1 1 1 1 1 1 1 2 2 3 2 3 3 3
9 9 11 11 11 10 10 9 5 3 2 4 4 4 2 3 4 4 6 6 4 4 4 4 3 2 1 1 1 1 1 1 0 0 0 0 1 1 0 1 1 2 2 2 4 2 3 3 3
10 12 13 13 13 13 10 8 6 3 2 3 3 3 3 3 3 4 4 5 4 4 4 4 4 2 2 1 1 1 1 1 1 0 0 1 1 1 0 0 1 2 2 3 3 3 4 3 3
9 12 14 12 9 11 8 8 5 3 2 2 3 4 3 2 4 4 4 4 4 3 3 4 4 4 3 2 2 1 1 1 1 1 1 1 1 1 1 1 1 2 2 2 3 3 5 4 4
9 9 8 7 6 7 7 5 3 3 2 2 4 4 4 3 4 4 3 4 4 3 1 2 3 3 2 2 1 1 1 2 2 1 2 2 2 1 1 2 1 2 2 2 2 3 4 4 4
8 7 7 8 9 10 8 3 2 3 3 4 5 4 5 4 4 3 3 3 3 3 1 1 1 1 1 1 1 1 0 1 1 1 2 2 2 2 2 2 2 3 3 3 2 3 4 4 4
7 8 9 8 10 10 6 3 1 4 5 6 6 4 3 4 3 3 3 3 3 3 2 1 1 1 0 1 1 2 1 1 1 1 2 2 2 2 1 2 2 3 3 3 4 3 4 4 4
7 8 6 6 6 7 7 5 4 5 6 5 4 3 4 4 4 3 3 3 2 1 2 3 1 1 1 2 2 1 0 0 1 1 2 2 3 3 2 2 3 3 3 3 4 4 4 5 4
8 7 7 7 7 7 8 5 3 5 4 4 3 4 4 4 4 2 2 2 2 2 2 2 1 1 1 1 1 0 1 0 1 1 1 2 2 3 3 3 3 3 3 4 4 4 4 5 5
7 7 7 7 8 9 8 5 2 4 5 5 6 6 5 3 2 2 2 2 1 1 1 0 1 1 1 1 1 1 1 0 1 1 2 2 2 2 3 3 3 4 4 4 4 5 5 4 5
Wind_Direction
241 245 240 251 245 245 254 255 60 62 67 68 53 54 60 47 54 90 115 118 117 123 129 131 130 131 133 135 136 141 146 150 151 152 153 153 150 146 142 141 141 140 136 131 123 112 97 77 58
247 247 244 248 252 251 251 239 75 68 69 74 74 68 68 62 64 101 116 117 122 127 134 134 134 134 136 137 137 141 147 153 156 157 158 157 156 156 157 158 161 165 164 167 170 171 161 18 337
257 254 253 247 246 259 296 27 68 76 76 73 72 61 60 68 72 103 118 127 128 131 131 132 138 137 138 139 139 141 146 152 157 161 163 164 166 167 170 173 178 186 193 201 208 226 239 253 271
248 234 236 249 255 252 295 30 41 100 89 77 88 79 74 61 85 113 129 137 133 132 130 136 140 140 140 141 142 143 147 154 158 162 165 168 173 176 182 188 193 203 211 218 226 236 246 254 265
241 247 241 250 250 253 274 72 16 58 70 63 71 92 92 82 100 119 137 139 133 130 132 140 142 143 144 145 146 148 151 155 159 166 170 173 177 185 195 202 207 214 222 225 230 237 244 252 260
238 241 250 259 253 227 190 76 322 81 76 79 95 107 99 111 114 130 135 136 132 131 132 139 146 148 150 151 153 155 156 160 166 174 178 182 189 196 202 209 215 221 226 227 232 242 246 250 253
250 263 265 264 264 249 148 110 27 47 48 29 0 104 120 121 125 133 132 133 131 131 134 144 152 155 158 161 162 160 162 168 176 180 185 194 201 207 211 216 219 222 225 231 235 241 246 250 252
252 271 275 271 266 265 94 96 81 46 43 31 357 90 123 125 136 137 136 134 133 133 137 147 155 159 166 170 173 170 172 181 188 192 198 207 214 219 221 220 220 225 231 235 240 246 249 251 252
251 263 277 289 285 319 55 78 90 101 88 72 62 78 119 136 142 143 141 139 138 137 141 151 156 161 171 172 172 177 183 189 194 203 211 214 221 223 220 222 215 219 228 235 239 244 249 254 253
242 257 273 303 340 20 8 7 340 168 115 118 109 110 126 138 145 152 153 155 149 147 151 158 160 162 172 173 160 178 186 190 199 206 212 219 229 234 230 213 214 219 226 234 238 243 248 249 254
240 257 290 305 342 3 340 333 315 287 21 88 107 122 133 145 153 160 161 160 155 150 148 147 149 152 159 154 155 168 182 181 198 207 215 224 231 239 234 211 211 224 231 236 242 241 245 249 252
248 261 282 293 328 331 312 322 335 8 53 82 118 137 148 157 160 164 161 159 150 145 144 136 138 139 144 130 146 159 174 170 189 197 214 224 222 241 242 228 222 228 234 229 250 253 256 261 266
255 252 250 267 285 293 312 316 295 4 92 101 117 137 147 149 148 152 154 150 142 141 142 140 135 126 127 127 160 162 180 181 181 170 191 217 223 235 248 246 246 265 267 242 244 255 259 261 271
267 272 262 263 258 253 264 255 247 236 140 132 139 149 160 158 154 155 158 155 149 142 139 135 138 135 139 150 173 181 200 183 190 152 181 209 236 228 238 254 244 256 269 293 263 256 256 256 259
266 261 255 246 244 241 258 257 229 191 173 159 151 151 154 154 158 162 158 154 151 141 139 142 149 150 155 168 188 192 205 178 181 147 186 204 237 246 242 249 241 245 251 250 258 274 276 262 260
255 250 252 244 224 228 239 275 263 195 184 155 144 146 145 143 142 144 142 138 140 141 139 138 167 150 150 161 186 208 205 162 151 141 167 173 244 258 255 252 257 274 273 258 250 249 265 271 269
263 260 261 264 245 257 257 260 248 200 165 156 153 148 144 136 146 145 140 143 142 137 134 137 142 150 168 174 186 198 154 140 127 107 92 73 315 294 281 264 285 284 270 266 278 271 263 268 267
287 286 280 278 273 274 281 275 246 209 179 175 162 141 140 147 149 145 137 133 133 129 126 133 135 131 159 182 179 198 202 179 133 97 81 81 316 303 288 274 285 291 281 269 277 279 261 258 260
283 290 285 285 298 295 285 277 261 230 206 184 173 161 161 157 153 134 130 138 136 131 134 143 158 140 145 185 201 227 206 174 151 136 112 114 281 295 283 291 289 280 275 279 293 287 284 272 264
283 292 290 295 297 288 274 261 242 221 200 187 184 166 162 163 138 133 131 134 139 141 144 151 153 148 183 182 191 214 208 219 132 62 81 55 342 298 283 277 259 278 278 276 280 282 289 296 296
294 294 302 311 310 294 281 266 239 219 188 156 147 139 155 171 154 152 144 137 145 148 153 162 161 157 179 156 161 121 187 249 82 66 87 35 348 346 329 314 305 282 274 270 274 277 278 288 294
303 320 311 300 296 290 290 287 268 231 194 144 135 128 144 150 148 141 143 145 144 151 155 147 137 135 183 167 194 213 208 259 274 204 132 283 263 262 294 310 310 300 307 301 295 313 287 282 291
316 320 307 296 289 284 281 282 275 255 220 144 127 115 105 116 120 111 125 137 137 151 159 145 133 146 167 176 208 254 284 308 356 329 166 251 247 243 233 254 312 280 288 297 304 310 294 285 281
325 317 310 299 286 277 287 288 296 325 306 146 146 123 106 115 117 105 113 122 125 133 145 139 149 157 173 184 186 234 270 281 288 291 267 260 258 242 242 280 281 284 291 297 297 294 285 282 282
333 324 318 310 293 294 318 312 318 31 3 111 141 124 126 112 105 116 121 127 116 111 113 137 140 159 175 179 185 213 256 270 266 276 273 284 292 285 292 312 299 292 282 275 275 283 288 282 279
310 302 304 312 310 308 306 311 341 27 43 76 88 95 102 91 80 89 95 112 124 111 84 106 127 142 168 161 185 177 205 255 291 324 308 302 304 311 313 304 301 298 304 306 309 291 282 282 281
301 298 308 300 290 296 305 310 334 52 46 57 68 67 80 83 64 55 79 89 95 110 107 75 72 84 290 246 241 199 200 284 298 304 300 322 331 307 331 315 305 302 299 300 301 295 300 296 287
307 306 309 298 303 306 309 332 344 9 13 23 36 44 46 45 53 50 57 50 63 84 143 131 130 224 233 223 235 248 132 295 302 311 333 331 321 320 313 307 305 302 298 292 293 294 294 292 292
320 322 327 318 313 307 303 317 6 355 2 2 21 43 45 33 17 23 47 46 39 30 73 138 179 220 232 230 198 215 233 235 315 309 314 321 322 316 312 315 309 303 303 304 298 290 290 294 299
311 327 333 322 316 304 303 302 333 7 5 13 30 30 31 32 4 359 22 26 27 5 29 261 239 249 238 187 182 191 237 283 298 312 314 313 306 307 310 309 306 303 310 313 307 303 305 305 303
Height
1497 1497 1498 1500 1496 1490 1481 1467 1459 1461 1462 1467 1470 1471 1475 1480 1486 1499 1500 1499 1500 1500 1504 1507 1509 1512 1514 1516 1518 1520 1522 1524 1526 1528 1529 1530 1532 1533 1534 1535 1536 1537 1538 1539 1539 1540 1541 1541 1541
1496 1498 1501 1498 1491 1492 1478 1461 1461 1462 1466 1469 1472 1474 1477 1485 1489 1495 1498 1500 1501 1501 1504 1507 1510 1512 1515 1517 1519 1521 1523 1525 1526 1528 1529 1531 1532 1533 1534 1535 1536 1537 1538 1538 1539 1540 1540 1541 1541
1496 1498 1500 1490 1485 1484 1474 1462 1462 1465 1468 1470 1474 1477 1482 1489 1493 1496 1499 1500 1502 1503 1505 1508 1510 1513 1515 1517 1519 1521 1523 1525 1527 1528 1529 1531 1532 1533 1534 1535 1536 1537 1538 1538 1539 1539 1540 1540 1541
1498 1499 1495 1487 1481 1470 1465 1465 1464 1466 1470 1472 1474 1480 1487 1492 1494 1497 1499 1501 1503 1504 1506 1509 1511 1513 1515 1518 1519 1521 1523 1525 1527 1528 1529 1530 1532 1533 1534 1535 1535 1536 1537 1538 1538 1539 1539 1539 1540
1498 1495 1488 1482 1473 1464 1461 1464 1466 1468 1471 1474 1476 1483 1491 1493 1494 1497 1500 1502 1504 1505 1507 1509 1512 1514 1516 1518 1520 1521 1523 1525 1526 1528 1529 1530 1531 1532 1533 1534 1535 1535 1536 1537 1537 1538 1538 1538 1538
1496 1488 1486 1482 1469 1462 1462 1465 1468 1469 1472 1475 1478 1483 1492 1494 1495 1498 1500 1503 1505 1506 1507 1510 1512 1514 1516 1518 1519 1521 1523 1524 1525 1527 1528 1529 1530 1531 1532 1533 1533 1534 1535 1535 1536 1536 1537 1537 1537
1493 1484 1480 1474 1468 1464 1462 1465 1468 1471 1474 1477 1479 1482 1491 1494 1496 1499 1501 1504 1506 1507 1508 1510 1512 1514 1516 1517 1519 1520 1522 1524 1525 1526 1527 1528 1529 1530 1530 1531 1532 1533 1533 1534 1534 1534 1535 1535 1535
1490 1484 1478 1471 1469 1466 1463 1466 1470 1474 1477 1480 1480 1483 1490 1494 1497 1500 1502 1504 1506 1508 1509 1510 1512 1514 1515 1517 1518 1520 1521 1522 1524 1525 1526 1527 1528 1528 1529 1529 1530 1531 1532 1532 1532 1533 1533 1533 1533
1487 1486 1482 1472 1468 1466 1464 1467 1471 1475 1478 1481 1483 1486 1489 1493 1496 1500 1502 1504 1506 1508 1510 1511 1512 1513 1515 1516 1517 1519 1520 1521 1522 1523 1524 1525 1526 1527 1527 1528 1528 1529 1530 1530 1530 1530 1531 1531 1530
1483 1483 1477 1469 1465 1466 1468 1469 1472 1475 1477 1481 1485 1487 1491 1493 1496 1499 1501 1504 1506 1507 1510 1511 1512 1513 1514 1516 1516 1517 1518 1520 1521 1522 1523 1524 1524 1525 1526 1526 1526 1527 1527 1527 1527 1527 1528 1528 1528
1478 1478 1472 1469 1469 1470 1471 1473 1473 1473 1478 1481 1485 1488 1492 1494 1496 1498 1501 1503 1505 1507 1509 1510 1511 1513 1514 1515 1516 1517 1518 1519 1519 1520 1521 1522 1523 1523 1524 1523 1524 1524 1524 1524 1524 1524 1524 1525 1525
1475 1474 1473 1471 1472 1473 1474 1474 1475 1476 1480 1482 1485 1488 1491 1493 1495 1497 1500 1502 1504 1506 1508 1509 1511 1512 1513 1514 1515 1516 1517 1517 1518 1518 1519 1519 1520 1521 1521 1521 1521 1521 1522 1522 1522 1521 1521 1521 1522
1473 1472 1472 1472 1473 1474 1474 1476 1477 1478 1480 1482 1485 1488 1490 1492 1494 1497 1499 1501 1503 1505 1506 1508 1509 1510 1511 1512 1513 1514 1515 1516 1516 1516 1516 1517 1518 1518 1518 1518 1518 1519 1519 1519 1518 1518 1518 1518 1518
1472 1471 1471 1471 1471 1472 1473 1475 1476 1479 1480 1482 1485 1487 1489 1491 1494 1496 1499 1501 1502 1503 1505 1506 1507 1508 1509 1510 1511 1512 1513 1514 1514 1514 1514 1514 1515 1515 1515 1515 1515 1516 1515 1515 1515 1514 1514 1514 1515
1473 1472 1470 1468 1468 1469 1471 1475 1473 1476 1478 1481 1484 1486 1489 1491 1493 1495 1497 1499 1501 1502 1504 1505 1506 1507 1507 1508 1509 1510 1511 1512 1512 1512 1512 1512 1512 1512 1512 1512 1512 1512 1512 1512 1512 1511 1511 1511 1511
1471 1471 1474 1466 1466 1466 1472 1480 1473 1475 1477 1480 1483 1486 1488 1490 1492 1494 1496 1497 1499 1501 1502 1503 1504 1505 1505 1505 1507 1508 1509 1509 1509 1509 1510 1509 1509 1509 1509 1509 1509 1509 1509 1509 1509 1508 1508 1507 1507
1472 1476 1474 1468 1462 1463 1468 1476 1473 1473 1476 1479 1481 1484 1487 1489 1491 1492 1494 1495 1497 1498 1500 1501 1502 1503 1503 1504 1504 1505 1506 1506 1507 1507 1507 1507 1507 1507 1507 1507 1507 1506 1506 1506 1505 1505 1504 1504 1504
1482 1475 1473 1471 1463 1464 1469 1473 1471 1473 1475 1477 1480 1483 1486 1488 1489 1491 1492 1494 1495 1497 1498 1499 1500 1501 1501 1502 1503 1503 1504 1504 1504 1505 1505 1505 1504 1504 1504 1504 1504 1503 1503 1502 1502 1502 1501 1501 1500
1474 1473 1473 1468 1462 1467 1470 1472 1471 1471 1473 1476 1479 1482 1484 1486 1488 1489 1490 1492 1493 1495 1496 1498 1499 1500 1500 1500 1501 1501 1502 1502 1502 1503 1502 1502 1502 1501 1501 1501 1500 1500 1500 1500 1499 1499 1498 1498 1497
1471 1474 1472 1466 1461 1466 1470 1470 1467 1468 1470 1474 1478 1481 1483 1485 1486 1489 1489 1491 1492 1493 1494 1496 1497 1498 1498 1498 1499 1500 1500 1500 1501 1501 1501 1500 1500 1499 1499 1498 1497 1497 1497 1496 1496 1496 1495 1495 1495
1473 1474 1472 1472 1466 1464 1466 1471 1468 1466 1468 1472 1476 1479 1482 1484 1485 1487 1488 1490 1492 1492 1493 1495 1495 1496 1497 1497 1498 1498 1499 1499 1499 1499 1499 1498 1497 1497 1496 1496 1495 1495 1494 1494 1494 1493 1492 1492 1492
1476 1469 1469 1469 1474 1475 1472 1484 1473 1469 1469 1472 1475 1478 1481 1483 1484 1486 1488 1489 1491 1492 1492 1493 1493 1494 1495 1496 1496 1497 1497 1497 1497 1497 1496 1496 1495 1495 1494 1494 1493 1492 1492 1491 1491 1491 1490 1490 1489
1474 1469 1470 1470 1473 1476 1473 1482 1478 1468 1472 1472 1476 1479 1480 1483 1484 1485 1487 1489 1490 1490 1491 1492 1492 1494 1494 1495 1495 1495 1496 1496 1496 1495 1494 1494 1493 1493 1492 1491 1490 1490 1490 1489 1489 1488 1488 1487 1487
1472 1473 1472 1471 1474 1488 1479 1484 1484 1474 1473 1472 1475 1478 1481 1483 1484 1485 1487 1488 1488 1489 1490 1491 1492 1493 1493 1493 1493 1494 1494 1494 1494 1493 1492 1492 1491 1491 1490 1489 1488 1488 1487 1487 1486 1486 1485 1485 1484
1477 1486 1496 1497 1495 1491 1477 1482 1485 1473 1471 1471 1474 1478 1481 1483 1484 1485 1487 1488 1488 1489 1490 1491 1491 1491 1492 1492 1492 1492 1492 1492 1492 1491 1491 1490 1489 1489 1488 1488 1487 1486 1486 1485 1484 1484 1483 1482 1481
1481 1487 1503 1511 1506 1494 1483 1487 1482 1472 1472 1474 1475 1478 1481 1483 1485 1486 1486 1487 1488 1488 1489 1490 1490 1490 1490 1490 1490 1490 1490 1490 1490 1489 1489 1488 1487 1487 1487 1486 1485 1484 1484 1483 1482 1481 1480 1480 1479
1482 1484 1481 1491 1494 1496 1490 1485 1480 1476 1475 1477 1478 1480 1481 1483 1485 1486 1486 1487 1487 1488 1488 1489 1489 1488 1489 1489 1489 1489 1489 1488 1488 1488 1488 1487 1486 1486 1485 1484 1483 1482 1482 1481 1480 1479 1478 1477 1476
1476 1477 1483 1490 1502 1506 1497 1491 1492 1483 1481 1479 1480 1481 1483 1485 1486 1487 1487 1488 1488 1488 1488 1488 1488 1488 1488 1488 1488 1488 1487 1487 1487 1486 1486 1485 1485 1485 1483 1482 1481 1480 1479 1478 1478 1476 1476 1475 1473
1480 1481 1482 1485 1487 1503 1507 1502 1485 1483 1481 1482 1481 1482 1484 1485 1486 1487 1487 1487 1487 1486 1487 1487 1487 1487 1487 1487 1487 1486 1486 1486 1485 1485 1485 1484 1483 1482 1481 1480 1479 1478 1477 1476 1476 1474 1473 1472 1471
1477 1481 1485 1497 1497 1494 1498 1501 1482 1482 1482 1482 1483 1484 1485 1486 1487 1488 1488 1488 1487 1487 1487 1486 1487 1486 1486 1485 1485 1485 1485 1485 1484 1484 1483 1483 1481 1480 1480 1479 1478 1477 1476 1474 1473 1472 1471 1469 1468